313P/Gibbs (2020)

Japanese version
Home page
Updated on November 9, 2019

---------------------------------------------------------------------

* Profile

* Orbital Elements

Epoch 2020 Apr. 21.0 TT = JDT 2458960.5
T 2020 Apr. 15.16831 TT                                 MPCW
q   2.4188923            (2000.0)            P               Q
n   0.17537437     Peri.  254.60676     +0.98297040     -0.01477647
a   3.1610058      Node   105.97205     +0.07787714     +0.93632454
e   0.2347713      Incl.   10.98336     -0.16644619     +0.35082475
P   5.62
From 96 observations 2003 Sept. 30-2018 July 31, mean residual 0".6.

* Magnitudes Graph

        m1 = 14.5 + 5 log d + 10.0 log r            [    ,-680]  (             - 2018 June  5)
        m1 =  5.0 + 5 log d + 25   log r(t + 1000)  [-680,-310]  (2018 June  5 - 2019 June 10)
        m1 = 14.5 + 5 log d + 10.0 log r            [-310,    ]  (2019 June 10 -             )

        * Gray curve is:  m1 = 14.5 + 5 log d + 10.0 log r

---------------------------------------------------------------------

The orbital elements are published on M.P.E.C. 2019-J142.
The magnitudes graphs are made with Comet for Windows.

---------------------------------------------------------------------

Copyright(C) Seiichi Yoshida (comet@aerith.net). All rights reserved.